User: anonymous   Login
Location: Luz Observatory
(34.5000°N, 117.2833°W)
Time: 00:25:21
(UTC-07:00)
Language:

Okean 3 Rocket - Orbit

View from above orbital plane
View from above orbital plane
View from above satellite
View from above satellite

Ground track
Ground track

The orbit data is extracted from the following two-line orbital elements,

1 21398U 91039B   14304.81782366  .00000450  00000-0  57104-4 0  8920
2 21398 082.5260 039.0528 0023076 088.0744 032.7768 14.79264194262059
Epoch (UTC): 31 October 2014 19:37:39
Eccentricity: 0.0023076
inclination: 82.5260°
perigee height: 615 km
apogee height: 648 km
right ascension of ascending node: 39.0528°
argument of perigee: 88.0744°
revolutions per day: 14.79264194
mean anomaly at epoch: 32.7768°
orbit number at epoch: 26205

The dashed part of the orbit path shows where the satellite is in the earth's shadow,  

DLR